www.pogodaiklimat.ru
ПОГОДА в Итаке
Время
и дата
04:30 22.05
04:56 22.05
05:56 22.05
06:56 22.05
07:56 22.05
08:56 22.05
09:56 22.05
10:56 22.05
11:56 22.05
12:56 22.05
13:54 22.05
13:56 22.05
14:42 22.05
14:56 22.05
15:38 22.05
15:56 22.05
16:56 22.05
17:56 22.05
18:56 22.05
19:56 22.05
20:56 22.05
21:31 22.05
21:56 22.05
22:24 22.05
22:56 22.05
23:11 22.05
23:56 22.05
00:56 23.05
01:56 23.05
02:43 23.05
02:56 23.05
03:56 23.05
04:30 23.05
04:56 23.05
05:56 23.05
06:56 23.05
07:56 23.05
08:56 23.05
09:56 23.05
10:56 23.05
11:56 23.05
12:56 23.05
13:56 23.05
14:56 23.05
15:56 23.05
16:56 23.05
17:56 23.05
18:56 23.05
Ветер
(напр.,м/с)
Видим. Явления Облачность Т
(С)
Тd
(С)
f
(%)
Тe
(С)
Тes
(С)
Комфортность P
(гПа)
Po
(гПа)
Тmin
(С)
Tmax
(С)
R
(мм)
R24
(мм)
S
(см)
штиль 0 16 км ясно +16.0 +16.0 100 +16 +16 976.1
В 1 16 км ясно +15.6 +15.6 100 +15 +15 1015.3 976.4
Ю 1 16 км ясно +18.3 +17.2 93 +19 +19 1015.8 977.1
Ю 2 0 м ясно +21.7 +17.2 76 +26 +27 душно 1016.0 977.1 +14.4 +21.7
нст 1 0 м ясно +23.3 +16.7 66 +28 +31 душно 1015.9 976.7
ЮЗ 2 0 м ясно +23.9 +16.7 64 +27 +32 жарко 1016.4 977.4
Ю 1 16 км 2/0 3600 м
[Ac]
+23.3 +16.7 66 +28 +38 душно 1016.1 977.1
Ю 2 16 км ясно +24.4 +17.2 64 +28 +39 душно 1015.8 976.7
ЮЗ 2 16 км ясно +25.0 +16.7 60 +29 +41 душно 1015.3 976.1
ЮЗ 1 16 км 8/8 1650 м +27.8 +17.8 55 +32 +35 душно 1014.6 975.8 +21.7 +27.8
З 1 14 км гроза 10/10 1110 м +22.0 +21.0 94 +28 +28 душно 976.4
ЮЗ 2 14 км гроза 10/10 1110 м +22.2 +21.1 93 +29 +29 очень
душно
1015.7 976.4
СЗ 2 16 км 8/8 690 м +23.0 +21.0 89 +31 +32 очень
душно
976.1
СЗ 4
{5}
16 км 8/8 660 м +21.7 +18.9 84 +27 +27 душно 1015.9 976.4
СЗ 5
{7}
11 км 10/10 270 м +17.0 +17.0 100 +15 +15 978.0
СЗ 4
{5}
11 км 10/10 210 м +14.4 +14.4 100 +12 +12 1018.8 979.0 2.0
СЗ 3 16 км 10/10 270 м +13.9 +13.9 100 +12 +12 1019.6 979.7
СЗ 3 16 км 10/10 270 м +13.3 +13.3 100 +11 +11 1020.5 980.6
СЗ 3 16 км 8/8 270 м +12.8 +12.8 100 +10 +10 1021.0 981.3 +12.8 +27.8 2.0
СЗ 2 16 км 2/2 390 м +12.2 +11.1 93 +10 +10 1021.7 981.9
СЗ 1 0 м ясно +11.1 +10.0 93 +9 +9 1023.0 983.2
СЗ 2 0 м 8/8 660 м +11.0 +10.0 94 +8 +8 983.6
СЗ 1 0 м 10/10 600 м +11.1 +10.0 93 +9 +9 1023.6 983.6
СЗ 1 0 м 5/5 600 м +10.0 +9.0 93 +8 +8 983.6
штиль 0 0 м 5/5 690 м +10.0 +10.0 100 +9 +9 1023.9 983.9
штиль 0 0 м 8/8 690 м +9.0 +9.0 100 +8 +8 983.9
СЗ 1 0 м 10/10 750 м +10.0 +9.4 96 +8 +8 1023.8 983.9
СЗ 1 0 м 10/10 750 м +9.4 +8.9 97 +7 +7 1023.4 983.9 +9.4 +12.8
СЗ 1 0 м 10/10 750 м +8.9 +8.9 100 +6 +6 1024.4 984.2
СЗ 1 0 м 2/2 810 м +8.0 +8.0 100 +5 +5 984.2
СЗ 1 0 м 5/5 870 м +8.3 +7.8 97 +6 +6 1024.7 984.5
СЗ 1 0 м ясно +7.8 +7.2 96 +5 +5 1025.2 984.9
С 1 16 км ясно +7.0 +7.0 100 +4 +4 984.9
СЗ 1 16 км ясно +7.2 +6.7 97 +4 +4 1025.4 984.9
СЗ 2 16 км 8/8 750 м +8.3 +7.8 97 +5 +5 1026.0 985.5
СЗ 2 16 км 5/5 300 м +9.4 +7.8 90 +6 +7 1026.1 985.5 +7.2 +9.4
СЗ 1 16 км 5/5 360 м +10.6 +8.3 86 +9 +10 1026.4 986.2
З 2 16 км 8/8 540 м +11.1 +8.3 83 +9 +10 1026.6 986.2
З 2 16 км 5/5 810 м +12.8 +9.4 80 +11 +15 1026.4 986.2
З 2 16 км 8/8 1440 м +13.3 +8.9 75 +11 +13 1026.5 986.2
З 1 16 км 10/10 870 м +13.9 +8.3 69 +13 +13 1026.4 985.8
СЗ 2 16 км 10/10 1500 м +15.0 +8.9 67 +14 +14 1025.6 985.2 +9.4 +15.6
З 2 16 км 10/10 1110 м +14.4 +7.8 65 +13 +13 1025.4 985.2
СЗ 2 16 км 8/8 1050 м +15.6 +8.3 62 +15 +17 1025.2 984.9
СЗ 1 16 км 8/8 1200 м +15.0 +7.8 62 +14 +16 1025.2 984.9
нст 1 16 км 5/5 1020 м +15.0 +7.8 62 +15 +19 1025.2 984.9
С 1 16 км 2/2 1050 м +13.9 +7.8 67 +13 +17 1025.3 984.9
С 1 16 км ясно +13.3 +7.2 67 +13 +14 1025.1 984.9 +13.3 +15.6
Местоположение метеостанции Ithaca Tompkins Regional Airport: широта 42.4908 долгота -76.4583 высота над уровнем моря 335 м.
В архиве по умолчанию представлена погода в Итаке за последние 1-2 суток. Обновление информации о фактической погоде в базе происходит ежечасно! Архивные данные за месяц целиком и за предыдущие месяцы Вы можете получить, выбрав интересующий диапазон дат из раскрывающегося списка и нажав кнопку "Ввод!".
Внимание! Архив погоды МЕТАР в базе сайта по станциям, не включенным в климатический монитор, хранится не более 60 дней. Нет смысла пытаться выбрать более раннюю дату.
*Определитесь, кто Вы:
Внимание! Время в таблицах - местное (без учета летнего времени). Для получения всемирного времени необходимо вычесть поправку, которая равна -5 ч.
Смотрите также архив погоды в соседних городах и на ближайших метеорологических станциях:
Партнеры нашего сайта:      
Пояснения к столбцам:
  • Ветер - указаны скорость ветра в м/с - средняя за 10 мин, порывы в срок и между сроками (в фигурных скобках) и направление, откуда дует ветер: С - северный,
  • СВ - северо-восточный, В - восточный, ЮВ - юго-восточный, Ю - южный, ЮЗ - юго-западный, З - западный, СЗ - северо-западный.
  • Видимость - горизонтальная дальность видимости в метрах или километрах. При видимости от 1 до 10 км при отсутствии осадков обычно наблюдается дымка, при ухудшении видимости до 1 км и менее - туман. В сухую погоду видимость может ухудшаться дымом, пылью или мглою.
  • Явления - указаны атмосферные явления, наблюдавшиеся в срок или в последний час перед сроком; фигурными скобками обозначены явления, наблюдавшиеся между сроками (за 1-3 часа до срока); квадратными скобками обозначены град или гололедные отложения с указанием их диаметра в мм.
  • Облачность - указаны через наклонную черту общая и нижняя облачность в баллах и высота нижней границы облаков в метрах; квадратными скобками обозначены формы облаков: Ci - перистые, Cs - перисто-слоистые, Cc - перисто-кучевые, Ac - высококучевые, As - высокослоистые, Sc - слоисто-кучевые, Ns - слоисто-дождевые, Cu - кучевые, Cb - кучево-дождевые. Подробнее классификацию облаков см. в Атласе облаков (PDF).
  • T - Температура воздуха - температура, измеренная на высоте 2 м над землей.
  • Td - Температура точки росы - температура, при понижении до которой содержащийся в воздухе водяной пар достигнет насыщения.
  • f - Относительная влажность воздуха - влажноcть воздуха, измеренная на высоте 2 м над землей.
  • Te - Эффективная температура - температура, которую ощущает одетый по сезону человек в тени. Характеристика душности погоды. При расчете учитывается влияние влажности воздуха и скорости ветра на теплоощущения человека.
  • Tes - Эффективная температура на солнце - температура, которую ощущает человек, с поправкой на солнечный нагрев. Характеристика знойности погоды. Зависит от высоты солнца над горизонтом, облачности и скорости ветра. Ночью, в пасмурную погоду, а также при ветре 12 м/с и более поправка равна нулю.
  • P - Атмосферное давление - приведенное к уровню моря атмосферное давление.
  • Po - Атмосферное давление - измеренное на уровне метеостанции атмосферное давление.
  • Tmin - Минимальная температура - минимум температуры воздуха на высоте 2 м над землей.
  • Tmax - Максимальная температура - максимум температуры воздуха на высоте 2 м над землей.
  • R - Количество осадков - Количество выпавших осадков за период времени, мм. При наведении курсора мыши на число - период времени, за который выпало указанное количество осадков.
  • R24 - Количество осадков - Количество выпавших осадков за 24 часа, мм.
  • S - Снежный покров - Высота снежного покрова, см. При наведении курсора мыши на число - состояние снежного покрова и степень покрытия местности в баллах.